Vertical_Velocity
-0 -0 -1 -3 -4 -5 -4 -4 -3 -1 -2 -2 0 2 -2 -2 -2 -5 2 5 2 1 -2 -0 1 -2 0 -1 2 -2 -4 -2 1 3 4 2 -1 1 -4 -0 -0 -4 2
2 -3 -2 -0 -2 -2 -3 -2 -3 -1 0 -2 -1 -1 -1 -3 -3 -4 -1 1 2 2 2 1 -2 -1 -1 -1 -0 2 3 1 -2 -1 -1 5 3 -1 2 -1 -0 -1 5
-4 -3 -4 -1 -2 1 -0 2 -0 -2 -3 -2 -0 1 -1 6 5 -0 -3 -3 -2 -2 1 4 0 2 0 2 -1 1 2 3 -0 -2 -1 2 3 2 4 3 -1 1 -3
11 2 -0 1 -3 -3 -3 -3 -2 -1 -4 -6 -4 -2 -2 -5 -3 4 8 -1 2 6 0 -6 -0 3 3 -1 1 -1 -0 1 0 1 -2 -4 1 0 1 0 2 -2 -6
-2 -3 -1 -1 -2 -1 -2 -6 1 -6 -1 -1 -4 0 1 -2 -3 -3 1 5 3 0 7 10 1 -3 -1 -1 1 -3 -1 -2 -2 -0 0 0 -2 -1 3 3 2 0 -0
-0 -4 0 -0 0 -0 -1 -3 -4 0 -6 -7 -3 -4 -1 -0 -1 -1 -6 -7 -7 -7 1 -5 6 5 -1 2 0 2 -3 0 -1 -1 2 1 -1 3 -1 -1 -3 2 1
0 2 -1 -9 -7 1 -4 -9 -7 -7 4 -6 -14 -8 -3 -6 -4 -4 -4 -4 -6 -14 -6 -4 -1 0 7 0 3 4 2 0 -5 -2 -0 3 2 -0 -0 -1 -0 -3 3
-0 1 -4 -3 -4 -1 1 -2 -6 -3 -1 -3 -20 -13 -7 16 -8 -1 -2 -3 -7 -9 -9 -3 -13 2 -4 7 4 -1 6 1 2 -6 -2 -0 4 4 -4 -2 -0 -1 -1
-7 -5 -1 -4 -5 -4 -2 -0 -3 -1 -5 8 -5 -13 -14 -14 -6 18 10 6 0 -2 -2 -13 -8 -7 2 -4 -2 5 11 10 -2 5 -3 -3 1 6 3 -3 -1 1 -1
1 -0 -4 -7 -7 -6 -5 -5 1 -5 -1 -3 4 -5 -4 -16 -22 -18 13 9 -0 -1 -1 5 -2 -4 -4 -5 7 -2 6 6 -3 3 -1 -3 -3 -1 7 1 -2 0 1
-1 2 -1 1 -1 0 -5 -6 -3 -4 -4 -2 -3 2 6 3 -5 -20 -31 4 7 5 3 3 -1 0 -6 -2 -2 -2 12 1 5 8 3 0 1 -2 -1 3 -0 0 2
3 -5 -2 -7 -1 -5 -1 2 -1 -1 -2 -2 -0 -3 -9 -6 1 2 -8 -20 -26 15 8 -1 -3 3 1 -2 -7 3 4 4 4 0 -0 2 -1 -3 1 1 0 -1 2
1 3 2 3 -1 0 1 1 -1 -7 -5 0 -1 1 -4 -3 -10 -7 -7 -4 -7 1 -0 11 -1 -2 -1 2 6 4 7 2 1 10 1 -4 1 1 -2 1 1 -2 -1
-4 -7 -2 4 -1 -5 -1 -2 -2 -4 -2 -2 -9 -3 -5 5 3 2 -5 -7 -4 -6 6 -3 2 -3 -8 0 6 5 4 3 -1 12 2 1 -2 -2 -3 2 3 2 -3
0 -0 -4 -4 -1 -1 -3 -2 -2 0 -1 -5 -2 1 0 1 1 2 1 -1 -6 -2 8 13 -8 2 1 -2 0 5 3 5 6 8 6 8 7 1 1 -6 1 3 3
-1 1 2 0 -2 -4 -5 -5 -2 -0 1 4 0 0 2 2 -3 1 -1 -2 -2 -8 -8 4 6 1 -1 5 3 4 9 7 12 4 6 2 5 4 7 -6 -6 -4 -1
-5 -1 -0 1 -2 1 1 0 4 3 0 -2 -1 -2 -1 1 1 4 1 -1 -4 -1 -15 10 -2 3 2 0 8 -1 1 12 13 13 18 14 4 -2 1 -3 -5 -5 -5
3 7 3 -1 -0 -5 -1 3 1 0 1 2 2 1 -2 -2 -1 -2 -1 2 -3 -1 -6 -1 10 2 2 -1 -2 0 9 8 6 1 6 6 -1 -3 -5 -2 1 -4 -1
-4 0 3 -2 -3 -2 3 4 1 2 0 -1 -1 -2 1 0 1 1 -0 -1 -2 -4 -2 -9 3 4 5 4 -5 -5 -2 6 9 -4 -4 -3 3 1 -0 -1 -5 -5 -7
-3 -2 -0 -3 -1 -2 3 1 -0 1 -0 0 -0 -2 -1 -2 -4 -3 -1 -1 1 -1 -1 -3 -5 2 -2 6 2 -2 -5 -2 4 5 1 -2 -4 -2 5 8 -4 -6 -5
-2 -3 4 -1 -2 -2 -2 -1 1 1 -2 -0 -0 1 1 -1 -0 -4 -8 1 2 2 -0 -1 -3 -1 5 6 1 -0 0 0 3 6 3 2 2 -2 0 4 4 5 -4
-8 5 -3 0 -6 -2 -2 -0 3 0 -3 -5 -1 2 0 0 0 2 -1 -3 -3 1 1 -3 -4 -2 4 -2 -3 -4 -4 1 -7 -15 -0 -4 0 -0 -2 -1 -4 -2 -5
-4 2 -0 -1 -5 -5 -0 -2 -2 -2 -3 -1 -4 -4 -2 -2 -1 1 1 2 1 -1 1 -2 -2 2 -1 -4 -6 -3 -2 -3 -1 10 -3 2 -2 3 -3 -5 -5 -0 1
1 2 -0 -0 -3 -2 -3 -2 -1 -4 -4 -2 -4 -5 -2 0 2 1 -1 1 -1 -2 -2 -4 2 -1 0 -1 -1 -0 -3 -1 2 10 -3 -1 -1 3 -2 -5 -5 -4 1
1 2 3 -4 -2 -3 -2 0 -4 0 1 -1 -2 -3 -4 2 -1 -4 0 1 2 -1 -3 2 2 -3 -3 -2 -3 -3 -1 -4 1 4 -4 -5 5 -0 -2 1 2 -3 -1
2 5 -0 -2 -3 -0 -1 -1 -1 3 3 1 2 -0 0 0 1 -1 1 1 1 -1 -0 -1 -2 -0 -1 -0 -1 -1 -1 3 2 2 -10 1 4 0 2 2 -1 -0 1
Height
5799 5794 5790 5787 5783 5780 5777 5775 5773 5771 5771 5771 5770 5768 5766 5764 5762 5761 5760 5759 5757 5756 5756 5757 5760 5760 5758 5758 5759 5760 5762 5763 5765 5767 5769 5770 5771 5774 5775 5777 5778 5782 5786
5791 5787 5781 5779 5775 5772 5768 5767 5765 5764 5763 5761 5760 5760 5760 5758 5755 5753 5752 5750 5749 5748 5746 5745 5744 5745 5747 5748 5748 5748 5749 5751 5755 5757 5759 5760 5763 5765 5768 5770 5771 5774 5778
5781 5779 5773 5770 5766 5763 5760 5758 5756 5754 5753 5751 5750 5749 5748 5747 5747 5746 5742 5739 5739 5738 5738 5736 5734 5734 5736 5736 5738 5738 5739 5740 5743 5746 5749 5751 5753 5758 5760 5762 5765 5767 5768
5776 5770 5764 5761 5756 5752 5750 5748 5746 5744 5741 5738 5736 5735 5734 5733 5732 5731 5731 5731 5727 5725 5723 5725 5725 5724 5723 5724 5726 5727 5729 5729 5731 5733 5738 5741 5743 5746 5750 5753 5757 5759 5763
5760 5756 5753 5750 5746 5743 5740 5736 5733 5729 5727 5724 5723 5723 5721 5719 5717 5715 5714 5712 5712 5711 5711 5710 5710 5711 5711 5710 5711 5713 5715 5716 5718 5720 5724 5728 5731 5734 5739 5742 5745 5750 5754
5753 5747 5743 5738 5733 5730 5727 5722 5720 5717 5713 5709 5708 5707 5706 5704 5702 5700 5697 5693 5691 5690 5691 5691 5691 5693 5693 5695 5697 5697 5700 5703 5705 5707 5709 5713 5718 5721 5727 5732 5735 5740 5743
5741 5737 5732 5727 5723 5719 5713 5707 5702 5698 5694 5689 5688 5688 5687 5683 5682 5680 5679 5676 5673 5670 5670 5670 5672 5671 5671 5673 5676 5680 5682 5684 5689 5692 5694 5698 5702 5707 5711 5717 5723 5728 5733
5729 5723 5717 5712 5708 5703 5698 5691 5685 5681 5677 5669 5662 5660 5659 5663 5661 5659 5657 5654 5653 5651 5650 5649 5647 5649 5651 5651 5654 5655 5660 5666 5668 5673 5677 5681 5686 5692 5697 5701 5707 5714 5720
5716 5709 5703 5697 5690 5684 5678 5671 5664 5659 5654 5648 5639 5634 5631 5630 5628 5633 5633 5630 5629 5628 5627 5624 5623 5624 5624 5626 5629 5633 5637 5642 5646 5653 5659 5664 5668 5674 5680 5685 5691 5698 5705
5702 5695 5688 5679 5671 5665 5657 5650 5643 5636 5630 5625 5619 5611 5603 5600 5599 5599 5605 5603 5600 5599 5600 5602 5598 5598 5601 5602 5606 5608 5611 5616 5622 5629 5636 5642 5649 5655 5662 5667 5673 5680 5688
5685 5677 5668 5660 5651 5643 5636 5628 5622 5614 5608 5601 5594 5590 5584 5575 5570 5563 5569 5576 5574 5571 5569 5571 5572 5573 5575 5579 5583 5589 5590 5592 5601 5608 5611 5619 5626 5634 5641 5650 5654 5661 5669
5670 5658 5647 5636 5628 5618 5610 5602 5594 5588 5580 5575 5569 5561 5555 5553 5547 5537 5533 5541 5541 5548 5542 5538 5538 5541 5546 5551 5557 5565 5569 5572 5577 5584 5593 5599 5606 5613 5620 5628 5638 5644 5651
5647 5636 5626 5613 5603 5595 5587 5578 5569 5561 5555 5549 5542 5534 5526 5519 5511 5508 5501 5503 5502 5507 5510 5508 5505 5507 5513 5521 5528 5539 5548 5551 5557 5563 5569 5576 5585 5591 5598 5607 5616 5624 5632
5625 5614 5605 5593 5580 5572 5564 5555 5544 5533 5525 5517 5510 5503 5496 5491 5483 5478 5474 5472 5475 5474 5477 5478 5478 5475 5480 5489 5497 5509 5520 5530 5535 5541 5547 5554 5562 5569 5577 5585 5594 5604 5611
5604 5591 5580 5571 5558 5547 5537 5528 5519 5510 5499 5490 5484 5477 5471 5467 5463 5460 5457 5456 5453 5458 5461 5460 5460 5458 5460 5463 5470 5479 5491 5505 5515 5518 5522 5533 5541 5547 5555 5562 5571 5582 5592
5582 5568 5557 5545 5533 5522 5510 5501 5493 5484 5477 5471 5463 5459 5455 5451 5448 5446 5443 5441 5439 5439 5445 5445 5447 5446 5447 5451 5454 5459 5469 5481 5492 5498 5502 5509 5517 5525 5533 5539 5550 5561 5572
5558 5546 5534 5523 5511 5500 5490 5480 5471 5465 5459 5453 5448 5444 5440 5436 5434 5431 5428 5426 5424 5423 5425 5432 5432 5434 5436 5438 5442 5446 5453 5462 5468 5478 5485 5489 5496 5504 5513 5521 5531 5542 5553
5536 5525 5512 5498 5486 5476 5468 5461 5455 5449 5443 5438 5432 5427 5422 5417 5413 5411 5409 5409 5408 5409 5410 5415 5418 5419 5421 5424 5428 5432 5438 5445 5450 5456 5462 5468 5476 5484 5493 5502 5511 5522 5532
5511 5502 5491 5477 5466 5458 5452 5446 5441 5435 5428 5422 5415 5409 5402 5396 5393 5389 5387 5387 5389 5390 5393 5396 5402 5405 5407 5409 5412 5416 5422 5429 5432 5438 5444 5451 5459 5469 5477 5483 5490 5499 5511
5493 5485 5476 5462 5452 5445 5440 5434 5428 5422 5414 5406 5398 5390 5384 5378 5373 5369 5367 5367 5369 5372 5374 5379 5384 5389 5393 5395 5397 5401 5408 5412 5419 5424 5430 5435 5443 5452 5460 5467 5474 5480 5487
5479 5469 5464 5452 5443 5436 5429 5422 5416 5408 5399 5390 5382 5374 5367 5361 5356 5351 5349 5352 5352 5353 5356 5360 5366 5373 5378 5382 5384 5387 5394 5399 5403 5408 5416 5421 5428 5436 5443 5451 5458 5462 5467
5467 5459 5454 5444 5434 5426 5418 5411 5403 5393 5383 5373 5365 5358 5351 5345 5340 5336 5333 5334 5335 5336 5339 5342 5349 5357 5363 5367 5371 5375 5381 5386 5391 5396 5402 5408 5412 5417 5423 5430 5436 5443 5450
5455 5451 5444 5434 5424 5416 5407 5398 5388 5378 5368 5359 5350 5342 5336 5329 5325 5322 5320 5320 5320 5322 5324 5327 5334 5342 5349 5355 5361 5365 5370 5375 5380 5385 5389 5395 5399 5404 5405 5410 5417 5423 5430
5447 5442 5434 5425 5415 5405 5397 5386 5376 5366 5356 5347 5339 5330 5323 5316 5310 5307 5306 5306 5307 5309 5310 5313 5321 5329 5337 5344 5350 5355 5359 5365 5370 5375 5377 5383 5385 5389 5390 5395 5401 5408 5414
5438 5433 5426 5416 5407 5397 5387 5378 5367 5358 5350 5341 5332 5323 5314 5306 5298 5294 5293 5293 5294 5297 5300 5304 5311 5319 5326 5333 5339 5345 5351 5354 5359 5362 5365 5369 5372 5374 5376 5381 5385 5390 5395
5432 5426 5417 5408 5399 5389 5379 5369 5361 5354 5346 5337 5327 5317 5309 5301 5293 5288 5286 5286 5288 5289 5292 5297 5304 5312 5319 5326 5332 5337 5341 5345 5348 5351 5350 5354 5358 5359 5363 5365 5368 5372 5377